[[{"header":{"parameterUnit":"m.s-1","parameterCategory":1,"la1":30.2991,"la2":30.254,"lo1":-89.0895,"lo2":-89.0444,"dy":0.0017,"dx":0.0017,"nx":28,"ny":28,"refTime":"2023-07-27T21:00:00:Z","depth":0,"parameterNumber":2,"parameterNumberName":"U-component_of_WINDS"},"data":[0,0,0,0,0,0,0,0,0,0,0,0,0,0,0,0,0,0,0,0,0,0,0,0,0,0,0,0,0,0,0,0,0,0,0,0,0,0,0,0,0,0,0,0,0,0,0,0,0,0,0,0,0,0,0,0,0,0,2.4412,2.4412,0,2.4469,2.4469,2.447,2.448,2.4479,2.4479,2.4478,2.4535,2.4537,2.4539,0,0,0,0,0,0,0,0,0,0,0,0,0,2.4312,2.4314,2.4412,2.4412,2.4413,2.4469,2.4469,2.447,2.448,2.4479,2.4479,2.4478,2.4535,2.4537,2.454,0,0,0,0,0,0,0,0,0,0,0,0,0,2.4361,2.4314,2.4412,2.4425,2.4426,2.4468,2.4469,2.447,2.448,2.4479,2.4478,2.4478,2.4534,2.4537,2.454,2.4573,0,0,2.4549,2.455,0,0,0,0,0,0,0,0,2.4358,2.4364,2.4422,2.4424,2.4426,2.4466,2.4455,2.4505,2.448,2.4459,2.4478,2.4477,2.4513,2.4518,2.453,2.4575,2.4578,2.4549,2.4551,2.4552,2.4553,0,0,0,0,0,0,0,2.4354,2.4362,2.4434,2.4423,2.4425,2.4428,2.4434,2.4465,2.449,2.4461,2.4462,2.4469,2.4514,2.4527,2.4531,2.4579,2.4549,2.4552,2.4554,2.4555,2.4656,2.4657,0,0,0,0,0,0,2.4349,2.4359,2.4432,2.4436,2.4389,2.443,2.4437,2.4454,2.4489,2.4494,2.4469,2.4469,2.4522,2.4528,2.4533,2.4575,2.4552,2.4555,2.4557,2.4655,2.4656,2.4657,0,0,0,0,0,0,2.4347,2.4355,2.443,2.4398,2.4407,2.4433,2.4452,2.4456,2.4469,2.4495,2.45,2.4478,2.4522,2.4529,2.4563,2.4577,2.4556,2.4559,2.4654,2.4655,2.4656,2.4658,0,0,0,0,0,0,2.4344,2.4354,2.4367,2.4398,2.4409,2.4459,2.4453,2.4457,2.4474,2.4474,2.4505,2.4509,2.4522,2.4559,2.4566,2.4581,2.4561,2.4653,2.4654,2.4656,2.4657,2.4659,2.4661,0,0,0,0,0,2.434,2.4364,2.4367,2.4376,2.4425,2.446,2.4466,2.448,2.4475,2.4488,2.4505,2.4508,2.4575,2.4562,2.4571,2.4586,2.4652,2.4654,2.4656,2.4656,2.4659,2.4661,0,0,0,0,0,0,2.4333,2.4369,2.4372,2.4407,2.4431,2.4461,2.4478,2.4483,2.4508,2.4507,2.4524,2.453,2.4564,2.4579,2.4564,2.4621,2.4613,2.4617,2.461,2.4613,2.4615,2.4611,2.4564,0,0,0,0,0,2.4336,2.4361,2.439,2.4419,2.443,2.4452,2.4468,2.4477,2.4501,2.4511,2.4531,2.4555,2.4581,2.4598,2.4623,2.4659,2.4667,2.4674,2.4677,2.4678,2.4681,2.4703,2.4707,2.4664,2.4664,2.4664,0,0,2.4341,2.4364,2.4378,2.4418,2.4437,2.4463,2.446,2.4487,2.4507,2.4515,2.4549,2.4564,2.4592,2.4628,2.4644,2.4641,2.4695,2.4681,2.4682,2.4684,2.4705,2.4709,2.4713,2.4665,2.4665,2.4664,0,0,2.4365,2.4384,2.441,2.443,2.4459,2.4474,2.448,2.4511,2.4522,2.4556,2.4564,2.4587,2.4632,2.4652,2.4667,2.4701,2.4705,2.4709,2.472,2.4741,2.4744,2.4747,2.476,2.4764,2.4712,2.4712,2.4712,0,2.4368,2.4407,2.4423,2.445,2.4468,2.4478,2.4505,2.4523,2.4559,2.4571,2.4567,2.4625,2.4644,2.4685,2.4693,2.4706,2.4714,2.4705,2.4743,2.4746,2.4749,2.4761,2.4766,2.4712,2.4712,2.4712,2.4712,0,2.441,2.4437,2.4455,2.449,2.451,2.4537,2.4558,2.4576,2.4584,2.4599,2.4635,2.4659,2.469,2.47,2.4708,2.4743,2.474,2.4739,2.4731,2.4753,2.4765,2.477,2.4712,2.4712,2.4712,2.4712,0,0,2.4429,2.4475,2.4481,2.4498,2.4532,2.4553,2.4581,2.4613,2.4628,2.4653,2.4678,2.4716,2.4716,2.4734,2.4745,2.4763,2.4789,2.476,2.4761,2.4765,2.483,2.483,2.4835,2.4792,2.4793,2.4794,2.4828,0,2.4457,2.4507,2.4523,2.4566,2.4592,2.4603,2.4627,2.4651,2.4667,2.4691,2.4709,2.4736,2.4733,2.4745,2.4763,2.4782,2.4802,2.478,2.4815,2.4816,2.4808,2.4841,2.4842,2.4872,2.4832,2.4833,2.4834,0,2.4495,2.4522,2.4567,2.46,2.4611,2.4633,2.4664,2.4687,2.4715,2.4725,2.4746,2.4756,2.4786,2.4777,2.482,2.4804,2.482,2.4832,2.4833,2.4837,2.4826,2.4846,2.4882,2.4887,2.4841,2.484,2.484,0,2.4505,2.4553,2.4586,2.46,2.4639,2.4654,2.4671,2.4698,2.4716,2.4743,2.4756,2.4786,2.4802,2.4826,2.4843,2.4835,2.4885,2.4877,2.4894,2.4894,2.4903,2.4903,2.4943,2.4914,2.4914,2.4914,2.4914,0,2.4534,2.4562,2.4592,2.4612,2.4643,2.4662,2.4693,2.471,2.4735,2.4759,2.477,2.4793,2.4815,2.4841,2.4855,2.4889,2.4896,2.4905,2.4909,2.4904,2.4903,2.4914,2.4913,2.4915,2.4915,2.4914,2.4914,0,2.4551,2.4572,2.4609,2.4643,2.4652,2.4674,2.4703,2.4724,2.4741,2.4772,2.478,2.4806,2.4838,2.4858,2.4897,2.4907,2.4944,2.4947,2.4935,2.4936,2.4952,2.4951,2.5001,2.5009,2.4975,2.4975,2.4975,0,2.4568,2.4589,2.4626,2.4644,2.4661,2.4689,2.4708,2.4728,2.4748,2.4782,2.4799,2.4831,2.4858,2.4907,2.493,2.496,2.4964,2.498,2.4969,2.4964,2.4965,2.4963,2.4966,2.4981,2.4982,2.4982,2.4982,0,2.4596,2.4606,2.4633,2.4665,2.4688,2.4714,2.4739,2.4753,2.4778,2.4799,2.4832,2.4853,2.4894,2.4926,2.4959,2.4976,2.4984,2.4986,2.4991,2.4987,2.4979,2.4984,2.4939,2.4984,2.4984,2.4984,2.4984,2.4983,2.4614,2.4634,2.4663,2.4694,2.4716,2.474,2.4762,2.4782,2.4809,2.4845,2.4855,2.4889,2.4918,2.4963,2.4982,2.5009,2.5007,2.5015,2.5017,2.5019,2.5019,2.4975,2.5015,2.5015,2.5015,2.5015,2.5015,0,2.4643,2.4663,2.4691,2.4727,2.4752,2.4757,2.4787,2.4807,2.4837,2.4863,2.489,2.4928,2.4959,2.4985,2.5018,2.5035,2.5039,2.5043,2.5041,2.5046,2.5019,2.5011,2.5039,2.5039,2.5039,2.5039,2.5039,2.5039,2.4661,2.4696,2.471,2.4756,2.4776,2.4809,2.4826,2.4849,2.487,2.4912,2.4939,2.4956,2.4982,2.5017,2.5047,2.5054,2.5065,2.5068,2.5076,2.505,2.5047,2.5045,2.5037,2.5071,2.5071,2.5101,2.5101,2.5101]},{"header":{"parameterUnit":"m.s-1","parameterCategory":1,"la1":30.2991,"la2":30.254,"lo1":-89.0895,"lo2":-89.0444,"dy":0.0017,"dx":0.0017,"nx":28,"ny":28,"refTime":"2023-07-27T21:00:00:Z","depth":0,"parameterNumber":3,"parameterNumberName":"V-component_of_WINDS"},"data":[0,0,0,0,0,0,0,0,0,0,0,0,0,0,0,0,0,0,0,0,0,0,0,0,0,0,0,0,0,0,0,0,0,0,0,0,0,0,0,0,0,0,0,0,0,0,0,0,0,0,0,0,0,0,0,0,0,0,-0.6304,-0.6304,0,-0.6318,-0.6318,-0.6319,-0.632,-0.632,-0.632,-0.632,-0.6332,-0.6332,-0.6333,0,0,0,0,0,0,0,0,0,0,0,0,0,-0.6277,-0.6277,-0.6304,-0.6304,-0.6304,-0.6318,-0.6318,-0.6319,-0.632,-0.632,-0.632,-0.632,-0.6332,-0.6332,-0.6333,0,0,0,0,0,0,0,0,0,0,0,0,0,-0.6289,-0.6277,-0.6304,-0.6307,-0.6307,-0.6318,-0.6318,-0.6319,-0.632,-0.632,-0.632,-0.6319,-0.6331,-0.6332,-0.6333,-0.6341,0,0,-0.6335,-0.6335,0,0,0,0,0,0,0,0,-0.6289,-0.629,-0.6306,-0.6306,-0.6307,-0.6317,-0.6313,-0.6326,-0.632,-0.6315,-0.632,-0.6319,-0.6327,-0.6328,-0.6331,-0.6342,-0.6342,-0.6335,-0.6335,-0.6336,-0.6336,0,0,0,0,0,0,0,-0.6288,-0.629,-0.6309,-0.6306,-0.6307,-0.6307,-0.6309,-0.6316,-0.6322,-0.6315,-0.6316,-0.6317,-0.6327,-0.633,-0.6331,-0.6343,-0.6335,-0.6336,-0.6336,-0.6336,-0.6364,-0.6364,0,0,0,0,0,0,-0.6287,-0.6289,-0.6309,-0.631,-0.6297,-0.6308,-0.6309,-0.6314,-0.6322,-0.6323,-0.6318,-0.6317,-0.6329,-0.6331,-0.6332,-0.6344,-0.6336,-0.6336,-0.6337,-0.6363,-0.6364,-0.6364,0,0,0,0,0,0,-0.6286,-0.6288,-0.6308,-0.63,-0.6302,-0.6308,-0.6314,-0.6314,-0.6318,-0.6324,-0.6324,-0.632,-0.6329,-0.6331,-0.634,-0.6344,-0.6337,-0.6337,-0.6363,-0.6363,-0.6364,-0.6367,0,0,0,0,0,0,-0.6285,-0.6288,-0.6291,-0.63,-0.6303,-0.6316,-0.6314,-0.6315,-0.6319,-0.6319,-0.6326,-0.6327,-0.6329,-0.6339,-0.634,-0.6345,-0.6338,-0.6363,-0.6363,-0.6364,-0.6367,-0.6368,-0.6369,0,0,0,0,0,-0.6284,-0.6291,-0.6292,-0.6294,-0.6307,-0.6316,-0.6318,-0.6321,-0.632,-0.6323,-0.6327,-0.6327,-0.6344,-0.634,-0.6341,-0.6346,-0.6362,-0.6363,-0.6364,-0.6366,-0.6368,-0.6369,0,0,0,0,0,0,-0.6281,-0.6292,-0.6293,-0.6302,-0.6309,-0.6317,-0.6321,-0.6322,-0.6329,-0.6328,-0.6331,-0.6333,-0.6342,-0.6345,-0.634,-0.6356,-0.6353,-0.6354,-0.6354,-0.6355,-0.6356,-0.6355,-0.6338,0,0,0,0,0,-0.6282,-0.6289,-0.6298,-0.6305,-0.6309,-0.6314,-0.6319,-0.6321,-0.6327,-0.633,-0.6334,-0.634,-0.6347,-0.6351,-0.6358,-0.6367,-0.637,-0.6372,-0.6373,-0.6374,-0.6375,-0.6382,-0.6384,-0.6366,-0.6366,-0.6366,0,0,-0.6283,-0.6289,-0.6294,-0.6305,-0.631,-0.6318,-0.6316,-0.6324,-0.633,-0.633,-0.634,-0.6344,-0.635,-0.636,-0.6365,-0.6363,-0.638,-0.6375,-0.6375,-0.6376,-0.6383,-0.6385,-0.6386,-0.6367,-0.6367,-0.6367,0,0,-0.6289,-0.6294,-0.6302,-0.6308,-0.6317,-0.6321,-0.6323,-0.6331,-0.6335,-0.6344,-0.6346,-0.6352,-0.6364,-0.6369,-0.6373,-0.6384,-0.6385,-0.6386,-0.6391,-0.6398,-0.64,-0.6401,-0.6406,-0.6408,-0.6387,-0.6387,-0.6387,0,-0.6288,-0.6301,-0.6305,-0.6314,-0.632,-0.6322,-0.6331,-0.6336,-0.6346,-0.635,-0.6348,-0.6364,-0.6368,-0.6381,-0.6384,-0.6386,-0.6389,-0.6385,-0.6399,-0.6401,-0.6402,-0.6407,-0.6409,-0.6387,-0.6387,-0.6387,-0.6387,0,-0.6301,-0.6309,-0.6314,-0.6326,-0.6332,-0.634,-0.6347,-0.6352,-0.6355,-0.6359,-0.637,-0.6376,-0.6385,-0.6388,-0.6389,-0.6401,-0.64,-0.6399,-0.6395,-0.6404,-0.6409,-0.641,-0.6388,-0.6388,-0.6388,-0.6388,0,0,-0.6303,-0.632,-0.6322,-0.6328,-0.6339,-0.6345,-0.6354,-0.6365,-0.637,-0.6377,-0.6385,-0.6396,-0.6396,-0.6401,-0.6403,-0.6409,-0.642,-0.6408,-0.6408,-0.6411,-0.6435,-0.6436,-0.6438,-0.642,-0.6421,-0.6421,-0.6435,0,-0.6311,-0.6328,-0.6334,-0.6348,-0.6357,-0.6361,-0.6369,-0.6377,-0.6382,-0.639,-0.6395,-0.6404,-0.6402,-0.6405,-0.6412,-0.6417,-0.6425,-0.6416,-0.6428,-0.6428,-0.6427,-0.6441,-0.6442,-0.6454,-0.6436,-0.6437,-0.6437,0,-0.6322,-0.6332,-0.6347,-0.636,-0.6364,-0.6371,-0.6382,-0.6389,-0.6399,-0.6402,-0.6409,-0.6412,-0.6422,-0.6418,-0.6433,-0.6427,-0.6432,-0.6436,-0.6437,-0.6438,-0.6433,-0.6443,-0.6458,-0.646,-0.644,-0.644,-0.6439,0,-0.6324,-0.6341,-0.6353,-0.6358,-0.6372,-0.6378,-0.6384,-0.6393,-0.64,-0.6409,-0.6413,-0.6423,-0.6429,-0.6437,-0.6442,-0.6439,-0.6457,-0.6453,-0.646,-0.646,-0.6464,-0.6464,-0.6481,-0.6466,-0.6466,-0.6466,-0.6466,0,-0.6333,-0.6342,-0.6355,-0.6362,-0.6373,-0.638,-0.6391,-0.6397,-0.6406,-0.6415,-0.6419,-0.6427,-0.6434,-0.6443,-0.6447,-0.646,-0.6462,-0.6465,-0.6466,-0.6465,-0.6465,-0.6469,-0.6468,-0.6467,-0.6467,-0.6467,-0.6466,0,-0.6336,-0.6345,-0.6359,-0.6372,-0.6376,-0.6384,-0.6395,-0.6403,-0.6409,-0.642,-0.6423,-0.6433,-0.6444,-0.6451,-0.6464,-0.6468,-0.6482,-0.6482,-0.6479,-0.648,-0.6487,-0.6487,-0.6508,-0.6511,-0.6494,-0.6494,-0.6494,0,-0.6341,-0.6349,-0.6364,-0.6371,-0.6378,-0.6389,-0.6396,-0.6404,-0.6412,-0.6425,-0.6431,-0.6443,-0.6453,-0.6471,-0.6479,-0.649,-0.6491,-0.6498,-0.6493,-0.6492,-0.6493,-0.6492,-0.6494,-0.6499,-0.6499,-0.6499,-0.6499,0,-0.635,-0.6354,-0.6365,-0.6378,-0.6388,-0.6398,-0.6408,-0.6414,-0.6423,-0.6432,-0.6444,-0.6452,-0.6468,-0.648,-0.6493,-0.6499,-0.6501,-0.6501,-0.6503,-0.6502,-0.6501,-0.6503,-0.6482,-0.65,-0.65,-0.65,-0.65,-0.65,-0.6355,-0.6363,-0.6376,-0.6388,-0.6398,-0.6408,-0.6416,-0.6425,-0.6436,-0.645,-0.6454,-0.6468,-0.6479,-0.6496,-0.6503,-0.6514,-0.6512,-0.6516,-0.6517,-0.6517,-0.6518,-0.6499,-0.6516,-0.6516,-0.6516,-0.6516,-0.6516,0,-0.6364,-0.6373,-0.6385,-0.6401,-0.6411,-0.6414,-0.6426,-0.6434,-0.6447,-0.6458,-0.6469,-0.6484,-0.6497,-0.6507,-0.652,-0.6527,-0.6528,-0.653,-0.653,-0.6531,-0.6518,-0.6515,-0.6529,-0.6529,-0.6529,-0.6529,-0.6529,-0.6529,-0.637,-0.6385,-0.6391,-0.6411,-0.642,-0.6435,-0.6442,-0.6451,-0.646,-0.6478,-0.6489,-0.6496,-0.6507,-0.6522,-0.6534,-0.6536,-0.6541,-0.6543,-0.6546,-0.6533,-0.6532,-0.6531,-0.6528,-0.6544,-0.6544,-0.6559,-0.6559,-0.6559]}]]